Find Starlink 35201

NORAD ID: 65664 Int'l Des: 2025-211 Owner: SPXS Country: US Constellation: starlink operational
LEOCIRCULARRETROGRADESSO

Live-Position

3D-Globus wird geladen...

Über Starlink 35201

Beschreibung wird geladen...

Nächste Überflüge

Passes for default location (London). Set your location on the main map for personalized predictions.

Höhenverlauf

Loading altitude history...

Zweizeiliger Elementsatz

1 65664U 25211N 26105.11098155 .00002987 00000-0 21109-3 0 9994
2 65664 97.6033 149.9908 0001433 103.3908 256.7479 15.05655668 32521
Epoch: 15. Apr. 2026 • Age: 8 hours

Aktueller Status

Höhe 573.9 km
Geschwindigkeit 7.57 km/s
Subsatellitenpunkt -60.87°S, 165.02°E
Startdatum 19. Sept. 2025
Alter 0.5 years
Typ internet

Technische Details

Klassifizierung Payload
Masse 575.00 kg
Trockenmasse 530.00 kg
Gesamtmasse 575.00 kg
Länge 0.30 m
Durchmesser 4.10 m
Spannweite 29.00 m
Form Box + pan
Hersteller SPXS
Bus-Typ Starlink V2MO
Phasenstatus In Orbit
Besitzer/Staat SPXS/US

Most Searched